STARLINK-32035 (60107 NORAD) Tracking and Keplerian Element Data

This shows tracking and keplerian element data for the satellite.

Feedback or suggestion? Click here.




ElementValue
Catalog60107
NameSTARLINK-32035
Epoch Orbit1827
Epoch Day286.22640667
Epoch Year2024
RAAN262.0578
Inclination53.1576
Eccentricity0.0001323
Argument of Perigee75.1368
Mean Anonmoly284.9779
Mean Motion15.30147004
Decay Rate0.00046623
L11 60107U 24117S 24286.22640667 .00046623 00000+0 15790-2 0 9998
L22 60107 53.1576 262.0578 0001323 75.1368 284.9779 15.30147004 18271



Live tracking and technical data element details for STARLINK-32035 (NORAD 60107). STARLINK-32035 can be tracked NOW for your location showing map with azimuth and elevation plus other details from your city location.







IsCatalogInMostPopularTable: catalog: 60107, numindb: 9
Update: records affected: 1



GetName: 60107 STARLINK-32035

Hit Count: updated at: Thu, 23 Jan 2025 14:04:53 GMT